Showing default

IRIDIUM 112, 41925

Orbit data source: Space-Track

IRIDIUM 112, 41925 is a payload satellite owned by Iridium (US) in LEO that was launched on Sat, 14 Jan 2017 UTC via an FALCON 9 launch vehicle from the Air Force Western Test Range (AFWTR). Payload-class satellites include a variety of spacecraft equipped with specific instruments for various scientific and technological missions. These include communications satellites like Starlink; space stations such as the ISS; scientific satellites like the Hubble; Earth observation satellites from companies like Planet Labs, Umbra, and HawkEye 360; GPS; miniature CubeSats for education and research; and military/defense satellites.

Loading next visibility...
Identifier
41925, 2017-003J
Orbit
LEO
Country
Flag of USUS
Related business
Manufacturer
OATK SSG Gilbert
Mission
Operational Commercial Communications
Bus & Motor
ELITEBUS, Unknown motor
Mass
860 kg wet, 700 kg dry
Launch date (UTC)
2017-01-14 (9 years ago)
Launch vehicle
FALCON 9
Launch site
Air Force Western Test Range (AFWTR)
Object type
Payload
Rocket body
Debris
Shape & HBR
Trap Box + 2 Pan, 4.8 m
Radar Cross Section
10.154 m², Large (>1 m²)

Expand to show TLE details & history
Last TLE update: 15 hours ago

TLE from 15 hours ago
0 IRIDIUM 112
1 41925U 17003J   26125.01659786  .00000117  00000-0  34860-4 0  9994
2 41925  86.3928 106.3586 0002248  91.0801 269.0652 14.34218765487081
Epoch: 2026-05-05T00:23Z
TLE epoch observation values (Epoch: 2026-05-05T00:23:54.055Z)
Latitude
-0.00004°
Longitude
-122.51412°
Altitude
780.741 km
Speed
7.463 km/s
True Right ascension
07h 05m 26s
True Declination
0° 00' 00"
Sunlit
Object was in daylight at epoch
Visualization orbit readout
Latitude
Unknown
Longitude
Unknown
Altitude
Unknown
Speed
Unknown
Apparent Right ascension
Unknown
Apparent Declination
Unknown
Sunlit
N/A
Visualization observer readout
Local Sidereal Time
23:14:31
Azimuth
Unknown
Elevation
Unknown
Doppler factor
Unknown
Orbital elements
Apogee altitude
776.236 km
Perigee altitude
773.02 km
Semi-major axis
7,152.765 km
Eccentricity
0.00022
Inclination
86.3928°
RAAN
106.3586°
Arg. of periapsis
91.0801°
True anomaly
269.03944°
Mean anomaly
269.0652°
Eccentric anomaly
269.05232°
Mean motion
3.58783 °/min
Orbital period
100.34 mins
BSTAR
0.00003486
Loading maneuver chart data...
Computing Atmospheric mass density...
Loading historical data...
Loading historical data...
Loading historical data...
Loading historical data...
Loading historical data...
Loading historical data...
Loading historical data...

Documentation

Showing up to 5 results
|